| time (UTC) | temp F | wind direction | speed MPH | gust MPH | rain 1hr in | rain 24hr in | rain mn in | humidity % | barometer mb |
| 20260906041636 | 77 | 95 | 0.0 | 0.0 | 0.00 | 0.00 | 0.00 | 58 | 1005.8 |
| 20260906041131 | 77 | 95 | 0.0 | 0.0 | 0.00 | 0.00 | 0.00 | 56 | 1005.8 |
| 20260906040629 | 77 | 94 | 0.0 | 0.0 | 0.00 | 0.00 | 0.00 | 56 | 1005.9 |
| 20260906040126 | 77 | 94 | 0.0 | 0.0 | 0.00 | 0.00 | 0.00 | 55 | 1005.9 |
| 20260906035633 | 77 | 95 | 0.0 | 0.0 | 0.00 | 0.00 | 0.00 | 56 | 1005.8 |
| 20260906035129 | 78 | 94 | 0.0 | 0.0 | 0.00 | 0.00 | 0.00 | 55 | 1005.8 |
| 20260906034636 | 78 | 94 | 0.0 | 0.0 | 0.00 | 0.00 | 0.00 | 55 | 1005.7 |
| 20260906034131 | 78 | 94 | 0.0 | 0.0 | 0.00 | 0.00 | 0.00 | 54 | 1005.7 |
| 20260906033625 | 78 | 95 | 0.0 | 0.0 | 0.00 | 0.00 | 0.00 | 54 | 1005.7 |
| 20260906033121 | 78 | 94 | 0.0 | 0.0 | 0.00 | 0.00 | 0.00 | 54 | 1005.7 |
| 20260906032632 | 78 | 94 | 0.0 | 0.0 | 0.00 | 0.00 | 0.00 | 53 | 1005.6 |
| 20260906032128 | 79 | 94 | 0.0 | 0.0 | 0.00 | 0.00 | 0.00 | 53 | 1005.6 |
| 20260906031624 | 79 | 94 | 0.0 | 0.0 | 0.00 | 0.00 | 0.00 | 52 | 1005.5 |
| 20260906031136 | 79 | 96 | 0.0 | 1.0 | 0.00 | 0.00 | 0.00 | 51 | 1005.5 |
| 20260906030632 | 79 | 96 | 0.0 | 1.0 | 0.00 | 0.00 | 0.00 | 52 | 1005.4 |
| 20260906030137 | 79 | 27 | 0.0 | 0.0 | 0.00 | 0.00 | 0.00 | 51 | 1005.2 |
| 20260906025622 | 80 | 26 | 0.0 | 0.0 | 0.00 | 0.00 | 0.00 | 51 | 1005.2 |
| 20260906025133 | 80 | 26 | 0.0 | 0.0 | 0.00 | 0.00 | 0.00 | 51 | 1005.2 |
| 20260906024630 | 80 | 26 | 0.0 | 0.0 | 0.00 | 0.00 | 0.00 | 50 | 1005.1 |
| 20260906024023 | 81 | 27 | 0.0 | 0.0 | 0.00 | 0.00 | 0.00 | 49 | 1005.1 |
| 20260906023533 | 81 | 27 | 0.0 | 0.0 | 0.00 | 0.00 | 0.00 | 48 | 1005.0 |
| 20260906023030 | 81 | 26 | 0.0 | 0.0 | 0.00 | 0.00 | 0.00 | 48 | 1005.0 |
| 20260906022525 | 82 | 26 | 0.0 | 0.0 | 0.00 | 0.00 | 0.00 | 47 | 1004.9 |
| 20260906022036 | 83 | 26 | 0.0 | 0.0 | 0.00 | 0.00 | 0.00 | 47 | 1004.9 |
| 20260906021532 | 83 | 26 | 0.0 | 0.0 | 0.00 | 0.00 | 0.00 | 46 | 1004.9 |
| 20260906021027 | 84 | 26 | 0.0 | 0.0 | 0.00 | 0.00 | 0.00 | 45 | 1005.0 |
| 20260906020526 | 84 | 29 | 0.0 | 1.0 | 0.00 | 0.00 | 0.00 | 44 | 1004.9 |
| 20260906020035 | 85 | 29 | 0.0 | 4.0 | 0.00 | 0.00 | 0.00 | 42 | 1004.8 |
| 20260906015531 | 86 | 29 | 0.0 | 4.0 | 0.00 | 0.00 | 0.00 | 41 | 1004.7 |
| 20260906015026 | 87 | 30 | 0.0 | 3.0 | 0.00 | 0.00 | 0.00 | 40 | 1004.7 |
| 20260906014535 | 87 | 9 | 0.0 | 4.0 | 0.00 | 0.00 | 0.00 | 39 | 1004.5 |
| 20260906014030 | 87 | 37 | 0.0 | 7.0 | 0.00 | 0.00 | 0.00 | 38 | 1004.5 |
| 20260906013529 | 87 | 11 | 2.0 | 7.0 | 0.00 | 0.00 | 0.00 | 38 | 1004.4 |
| 20260906013021 | 86 | 360 | 2.0 | 7.0 | 0.00 | 0.00 | 0.00 | 40 | 1004.3 |
| 20260906012536 | 85 | 16 | 0.0 | 3.0 | 0.00 | 0.00 | 0.00 | 42 | 1004.3 |
| 20260906012028 | 86 | 60 | 0.0 | 2.0 | 0.00 | 0.00 | 0.00 | 42 | 1004.2 |
| 20260906011523 | 86 | 53 | 0.0 | 3.0 | 0.00 | 0.00 | 0.00 | 42 | 1004.1 |
| 20260906011034 | 87 | 346 | 0.0 | 3.0 | 0.00 | 0.00 | 0.00 | 40 | 1004.1 |
| 20260906010531 | 87 | 186 | 0.0 | 4.0 | 0.00 | 0.00 | 0.00 | 40 | 1004.1 |
| 20260906010028 | 87 | 38 | 0.0 | 4.0 | 0.00 | 0.00 | 0.00 | 39 | 1004.2 |
| 20260906005527 | 87 | 20 | 0.0 | 4.0 | 0.00 | 0.00 | 0.00 | 40 | 1004.2 |
| 20260906005033 | 86 | 360 | 1.0 | 4.0 | 0.00 | 0.00 | 0.00 | 45 | 1004.1 |
| 20260906004526 | 87 | 143 | 0.0 | 1.0 | 0.00 | 0.00 | 0.00 | 46 | 1003.9 |
| 20260906004025 | 88 | 143 | 0.0 | 0.0 | 0.00 | 0.00 | 0.00 | 45 | 1003.8 |
| 20260906003532 | 89 | 144 | 0.0 | 1.0 | 0.00 | 0.00 | 0.00 | 43 | 1003.8 |
| 20260906003029 | 89 | 143 | 0.0 | 1.0 | 0.00 | 0.00 | 0.00 | 40 | 1003.9 |
| 20260906002526 | 89 | 148 | 0.0 | 2.0 | 0.00 | 0.00 | 0.00 | 39 | 1003.7 |
| 20260906002036 | 89 | 163 | 0.0 | 2.0 | 0.00 | 0.00 | 0.00 | 40 | 1003.8 |
| 20260906001530 | 88 | 209 | 0.0 | 1.0 | 0.00 | 0.00 | 0.00 | 43 | 1003.8 |
| 20260906001025 | 88 | 276 | 0.0 | 1.0 | 0.00 | 0.00 | 0.00 | 43 | 1003.7 |
| 20260906000537 | 87 | 104 | 0.0 | 1.0 | 0.00 | 0.00 | 0.00 | 46 | 1003.7 |
| 20260906000032 | 87 | 9 | 0.0 | 0.0 | 0.00 | 0.00 | 0.00 | 46 | 1003.8 |
| 20260905235524 | 88 | 9 | 0.0 | 0.0 | 0.00 | 0.00 | 0.00 | 45 | 1003.7 |
| 20260905235034 | 88 | 9 | 0.0 | 0.0 | 0.00 | 0.00 | 0.00 | 45 | 1003.7 |
| 20260905234529 | 88 | 9 | 0.0 | 0.0 | 0.00 | 0.00 | 0.00 | 45 | 1003.7 |
| 20260905234025 | 87 | 9 | 0.0 | 0.0 | 0.00 | 0.00 | 0.00 | 45 | 1003.6 |
| 20260905233521 | 88 | 9 | 0.0 | 0.0 | 0.00 | 0.00 | 0.00 | 45 | 1003.6 |
| 20260905233033 | 88 | 8 | 0.0 | 0.0 | 0.00 | 0.00 | 0.00 | 43 | 1003.7 |
| 20260905232528 | 89 | 9 | 0.0 | 0.0 | 0.00 | 0.00 | 0.00 | 40 | 1003.7 |
| 20260905232024 | 91 | 9 | 0.0 | 0.0 | 0.00 | 0.00 | 0.00 | 38 | 1003.8 |
| 20260905231537 | 93 | 8 | 0.0 | 1.0 | 0.00 | 0.00 | 0.00 | 36 | 1003.8 |
| 20260905231030 | 94 | 9 | 0.0 | 1.0 | 0.00 | 0.00 | 0.00 | 33 | 1003.7 |
| 20260905230541 | 95 | 54 | 0.0 | 2.0 | 0.00 | 0.00 | 0.00 | 31 | 1003.8 |
| 20260905230026 | 95 | 329 | 0.0 | 3.0 | 0.00 | 0.00 | 0.00 | 30 | 1003.9 |
| 20260905225535 | 96 | 273 | 0.0 | 3.0 | 0.00 | 0.00 | 0.00 | 30 | 1003.8 |
| 20260905225031 | 96 | 339 | 0.0 | 3.0 | 0.00 | 0.00 | 0.00 | 33 | 1003.9 |
| 20260905224527 | 96 | 124 | 0.0 | 4.0 | 0.00 | 0.00 | 0.00 | 31 | 1003.9 |
| 20260905224023 | 96 | 115 | 1.0 | 4.0 | 0.00 | 0.00 | 0.00 | 30 | 1004.0 |
| 20260905223532 | 97 | 129 | 0.0 | 2.0 | 0.00 | 0.00 | 0.00 | 30 | 1003.9 |
| 20260905223027 | 97 | 110 | 0.0 | 1.0 | 0.00 | 0.00 | 0.00 | 29 | 1004.0 |
| 20260905222525 | 97 | 122 | 0.0 | 1.0 | 0.00 | 0.00 | 0.00 | 31 | 1004.1 |
| 20260905222034 | 97 | 123 | 0.0 | 2.0 | 0.00 | 0.00 | 0.00 | 32 | 1004.1 |
| 20260905221528 | 97 | 104 | 0.0 | 2.0 | 0.00 | 0.00 | 0.00 | 30 | 1004.1 |
| 20260905221025 | 98 | 113 | 0.0 | 2.0 | 0.00 | 0.00 | 0.00 | 31 | 1004.2 |
| 20260905220534 | 98 | 133 | 0.0 | 2.0 | 0.00 | 0.00 | 0.00 | 30 | 1004.2 |
| 20260905220031 | 98 | 270 | 0.0 | 6.0 | 0.00 | 0.00 | 0.00 | 29 | 1004.2 |
| 20260905215526 | 98 | 208 | 2.0 | 6.0 | 0.00 | 0.00 | 0.00 | 28 | 1004.4 |
| 20260905215022 | 98 | 186 | 0.0 | 4.0 | 0.00 | 0.00 | 0.00 | 30 | 1004.2 |
| 20260905214533 | 98 | 224 | 0.0 | 4.0 | 0.00 | 0.00 | 0.00 | 29 | 1004.3 |
| 20260905214029 | 98 | 263 | 0.0 | 4.0 | 0.00 | 0.00 | 0.00 | 31 | 1004.5 |
| 20260905213528 | 97 | 150 | 0.0 | 3.0 | 0.00 | 0.00 | 0.00 | 32 | 1004.5 |
| 20260905213038 | 97 | 17 | 0.0 | 3.0 | 0.00 | 0.00 | 0.00 | 29 | 1004.6 |
| 20260905212534 | 98 | 309 | 0.0 | 2.0 | 0.00 | 0.00 | 0.00 | 30 | 1004.8 |
| 20260905212032 | 97 | 240 | 0.0 | 2.0 | 0.00 | 0.00 | 0.00 | 30 | 1004.9 |
| 20260905211524 | 97 | 112 | 0.0 | 4.0 | 0.00 | 0.00 | 0.00 | 33 | 1005.0 |
| 20260905211035 | 97 | 108 | 0.0 | 4.0 | 0.00 | 0.00 | 0.00 | 31 | 1005.1 |
| 20260905210533 | 96 | 165 | 0.0 | 5.0 | 0.00 | 0.00 | 0.00 | 32 | 1005.3 |
| 20260905210028 | 96 | 91 | 2.0 | 5.0 | 0.00 | 0.00 | 0.00 | 32 | 1005.4 |
| 20260905205645 | 97 | 261 | 0.0 | 3.0 | 0.00 | 0.00 | 0.00 | 34 | 1005.4 |
| 20260905205030 | 96 | 143 | 0.0 | 3.0 | 0.00 | 0.00 | 0.00 | 31 | 1005.6 |
| 20260905204525 | 96 | 106 | 0.0 | 5.0 | 0.00 | 0.00 | 0.00 | 33 | 1005.8 |
| 20260905204020 | 96 | 238 | 1.0 | 4.0 | 0.00 | 0.00 | 0.00 | 35 | 1005.8 |
| 20260905203533 | 95 | 134 | 0.0 | 2.0 | 0.00 | 0.00 | 0.00 | 32 | 1005.8 |
| 20260905203028 | 96 | 121 | 0.0 | 2.0 | 0.00 | 0.00 | 0.00 | 34 | 1005.8 |
| 20260905202522 | 96 | 343 | 0.0 | 1.0 | 0.00 | 0.00 | 0.00 | 32 | 1005.9 |
| 20260905202036 | 96 | 269 | 0.0 | 1.0 | 0.00 | 0.00 | 0.00 | 34 | 1005.9 |
| 20260905201536 | 95 | 127 | 0.0 | 5.0 | 0.00 | 0.00 | 0.00 | 34 | 1005.9 |
| 20260905201024 | 95 | 155 | 1.0 | 5.0 | 0.00 | 0.00 | 0.00 | 35 | 1006.0 |
| 20260905200533 | 95 | 115 | 0.0 | 4.0 | 0.00 | 0.00 | 0.00 | 33 | 1006.1 |
| 20260905200039 | 96 | 113 | 0.0 | 3.0 | 0.00 | 0.00 | 0.00 | 33 | 1006.3 |
| 20260905195523 | 96 | 144 | 0.0 | 1.0 | 0.00 | 0.00 | 0.00 | 35 | 1006.4 |
| 20260905195036 | 95 | 26 | 0.0 | 2.0 | 0.00 | 0.00 | 0.00 | 35 | 1006.5 |
| 20260905194532 | 94 | 360 | 0.0 | 3.0 | 0.00 | 0.00 | 0.00 | 36 | 1006.6 |
| 20260905194027 | 93 | 112 | 0.0 | 6.0 | 0.00 | 0.00 | 0.00 | 34 | 1006.7 |
| 20260905193522 | 94 | 144 | 1.0 | 6.0 | 0.00 | 0.00 | 0.00 | 35 | 1006.9 |
| 20260905193033 | 95 | 129 | 0.0 | 3.0 | 0.00 | 0.00 | 0.00 | 34 | 1006.9 |
| 20260905192529 | 95 | 119 | 0.0 | 3.0 | 0.00 | 0.00 | 0.00 | 34 | 1007.1 |
| 20260905192028 | 94 | 87 | 0.0 | 6.0 | 0.00 | 0.00 | 0.00 | 38 | 1007.2 |
| 20260905191534 | 95 | 193 | 2.0 | 6.0 | 0.00 | 0.00 | 0.00 | 37 | 1007.2 |
| 20260905191031 | 95 | 326 | 0.0 | 2.0 | 0.00 | 0.00 | 0.00 | 34 | 1007.3 |
| 20260905190524 | 94 | 120 | 0.0 | 2.0 | 0.00 | 0.00 | 0.00 | 35 | 1007.6 |
| 20260905190036 | 93 | 317 | 0.0 | 5.0 | 0.00 | 0.00 | 0.00 | 36 | 1007.7 |
| 20260905185531 | 92 | 284 | 0.0 | 5.0 | 0.00 | 0.00 | 0.00 | 37 | 1007.9 |
| 20260905185025 | 90 | 53 | 0.0 | 4.0 | 0.00 | 0.00 | 0.00 | 42 | 1008.0 |
| 20260905184532 | 90 | 103 | 1.0 | 6.0 | 0.00 | 0.00 | 0.00 | 40 | 1008.1 |
| 20260905184035 | 90 | 113 | 2.0 | 6.0 | 0.00 | 0.00 | 0.00 | 40 | 1008.1 |
| 20260905183535 | 91 | 122 | 0.0 | 4.0 | 0.00 | 0.00 | 0.00 | 40 | 1008.2 |
| 20260905183029 | 91 | 105 | 1.0 | 4.0 | 0.00 | 0.00 | 0.00 | 40 | 1008.4 |
| 20260905182523 | 91 | 5 | 0.0 | 3.0 | 0.00 | 0.00 | 0.00 | 40 | 1008.5 |
| 20260905182032 | 90 | 198 | 0.0 | 3.0 | 0.00 | 0.00 | 0.00 | 42 | 1008.4 |
| 20260905181525 | 90 | 106 | 0.0 | 2.0 | 0.00 | 0.00 | 0.00 | 43 | 1008.6 |
| 20260905181032 | 90 | 117 | 0.0 | 2.0 | 0.00 | 0.00 | 0.00 | 42 | 1008.6 |
| 20260905180527 | 90 | 132 | 0.0 | 3.0 | 0.00 | 0.00 | 0.00 | 44 | 1008.6 |
| 20260905180022 | 90 | 136 | 0.0 | 3.0 | 0.00 | 0.00 | 0.00 | 44 | 1008.6 |
| 20260905175533 | 89 | 217 | 0.0 | 4.0 | 0.00 | 0.00 | 0.00 | 44 | 1008.7 |
| 20260905175028 | 89 | 114 | 0.0 | 3.0 | 0.00 | 0.00 | 0.00 | 45 | 1008.8 |
| 20260905174544 | 89 | 131 | 0.0 | 2.0 | 0.00 | 0.00 | 0.00 | 48 | 1008.9 |
| 20260905174031 | 89 | 118 | 0.0 | 2.0 | 0.00 | 0.00 | 0.00 | 47 | 1009.0 |
| 20260905173525 | 88 | 106 | 0.0 | 3.0 | 0.00 | 0.00 | 0.00 | 48 | 1009.1 |
| 20260905173121 | 88 | 108 | 0.0 | 3.0 | 0.00 | 0.00 | 0.00 | 48 | 1009.1 |
| 20260905172622 | 88 | 115 | 0.0 | 2.0 | 0.00 | 0.00 | 0.00 | 50 | 1009.2 |
| 20260905172131 | 87 | 113 | 0.0 | 2.0 | 0.00 | 0.00 | 0.00 | 50 | 1009.3 |
| 20260905171627 | 86 | 136 | 0.0 | 2.0 | 0.00 | 0.00 | 0.00 | 49 | 1009.3 |
| 20260905171126 | 86 | 84 | 0.0 | 3.0 | 0.00 | 0.00 | 0.00 | 48 | 1009.4 |
| 20260905170637 | 87 | 33 | 0.0 | 1.0 | 0.00 | 0.00 | 0.00 | 47 | 1009.4 |
| 20260905170131 | 87 | 225 | 0.0 | 1.0 | 0.00 | 0.00 | 0.00 | 50 | 1009.4 |
| 20260905165626 | 86 | 39 | 0.0 | 2.0 | 0.00 | 0.00 | 0.00 | 53 | 1009.5 |
| 20260905165122 | 85 | 46 | 0.0 | 2.0 | 0.00 | 0.00 | 0.00 | 52 | 1009.5 |
| 20260905164632 | 85 | 133 | 0.0 | 1.0 | 0.00 | 0.00 | 0.00 | 52 | 1009.4 |
| 20260905164127 | 85 | 321 | 0.0 | 1.0 | 0.00 | 0.00 | 0.00 | 51 | 1009.4 |
| 20260905163636 | 84 | 101 | 0.0 | 1.0 | 0.00 | 0.00 | 0.00 | 54 | 1009.5 |
| 20260905163133 | 84 | 113 | 0.0 | 2.0 | 0.00 | 0.00 | 0.00 | 53 | 1009.6 |
| 20260905162626 | 83 | 120 | 0.0 | 3.0 | 0.00 | 0.00 | 0.00 | 55 | 1009.6 |
| 20260905162122 | 83 | 34 | 0.0 | 3.0 | 0.00 | 0.00 | 0.00 | 55 | 1009.6 |
| 20260905161633 | 83 | 116 | 0.0 | 1.0 | 0.00 | 0.00 | 0.00 | 55 | 1009.6 |
| 20260905161129 | 83 | 40 | 0.0 | 1.0 | 0.00 | 0.00 | 0.00 | 53 | 1009.7 |
| 20260905160625 | 83 | 51 | 0.0 | 1.0 | 0.00 | 0.00 | 0.00 | 59 | 1009.8 |
| 20260905160134 | 81 | 51 | 0.0 | 1.0 | 0.00 | 0.00 | 0.00 | 59 | 1009.9 |
| 20260905155630 | 81 | 50 | 0.0 | 1.0 | 0.00 | 0.00 | 0.00 | 60 | 1009.9 |
| 20260905155125 | 81 | 49 | 0.0 | 1.0 | 0.00 | 0.00 | 0.00 | 58 | 1010.0 |
| 20260905154636 | 81 | 143 | 0.0 | 1.0 | 0.00 | 0.00 | 0.00 | 61 | 1009.9 |
| 20260905154133 | 80 | 110 | 0.0 | 1.0 | 0.00 | 0.00 | 0.00 | 62 | 1009.8 |
| 20260905153625 | 80 | 109 | 0.0 | 1.0 | 0.00 | 0.00 | 0.00 | 64 | 1009.8 |
| 20260905153129 | 79 | 186 | 0.0 | 1.0 | 0.00 | 0.00 | 0.00 | 66 | 1009.8 |
| 20260905152635 | 78 | 173 | 0.0 | 2.0 | 0.00 | 0.00 | 0.00 | 67 | 1009.7 |
| 20260905152129 | 78 | 124 | 0.0 | 2.0 | 0.00 | 0.00 | 0.00 | 68 | 1009.8 |
| 20260905151623 | 77 | 132 | 0.0 | 1.0 | 0.00 | 0.00 | 0.00 | 71 | 1009.9 |
| 20260905151134 | 76 | 136 | 0.0 | 2.0 | 0.00 | 0.00 | 0.00 | 73 | 1009.8 |
| 20260905150630 | 76 | 122 | 0.0 | 2.0 | 0.00 | 0.00 | 0.00 | 74 | 1009.9 |
| 20260905150125 | 75 | 135 | 0.0 | 1.0 | 0.00 | 0.00 | 0.00 | 76 | 1009.9 |
| 20260905145635 | 74 | 135 | 0.0 | 3.0 | 0.00 | 0.00 | 0.00 | 77 | 1009.8 |
| 20260905145143 | 74 | 148 | 0.0 | 3.0 | 0.00 | 0.00 | 0.00 | 78 | 1009.8 |
| 20260905144626 | 73 | 155 | 0.0 | 3.0 | 0.00 | 0.00 | 0.00 | 79 | 1009.8 |
| 20260905144125 | 73 | 203 | 0.0 | 1.0 | 0.00 | 0.00 | 0.00 | 81 | 1009.8 |
| 20260905143633 | 72 | 172 | 0.0 | 1.0 | 0.00 | 0.00 | 0.00 | 82 | 1009.8 |
| 20260905143026 | 71 | 135 | 0.0 | 1.0 | 0.00 | 0.00 | 0.00 | 83 | 1009.9 |
| 20260905142520 | 71 | 135 | 0.0 | 1.0 | 0.00 | 0.00 | 0.00 | 83 | 1009.9 |
| 20260905142132 | 70 | 135 | 0.0 | 1.0 | 0.00 | 0.00 | 0.00 | 83 | 1009.9 |
| 20260905141551 | 69 | 148 | 0.0 | 1.0 | 0.00 | 0.00 | 0.00 | 83 | 1009.8 |
| 20260905141024 | 69 | 37 | 0.0 | 1.0 | 0.00 | 0.00 | 0.00 | 81 | 1009.8 |
| 20260905140536 | 68 | 37 | 0.0 | 0.0 | 0.00 | 0.00 | 0.00 | 80 | 1009.8 |
| 20260905140030 | 68 | 37 | 0.0 | 0.0 | 0.00 | 0.00 | 0.00 | 80 | 1009.7 |
| 20260905135524 | 67 | 37 | 0.0 | 0.0 | 0.00 | 0.00 | 0.00 | 80 | 1009.7 |
| 20260905135036 | 67 | 37 | 0.0 | 0.0 | 0.00 | 0.00 | 0.00 | 80 | 1009.6 |
| 20260905134530 | 67 | 37 | 0.0 | 0.0 | 0.00 | 0.00 | 0.00 | 80 | 1009.4 |
| 20260905134033 | 67 | 37 | 0.0 | 0.0 | 0.00 | 0.00 | 0.00 | 80 | 1009.4 |
| 20260905133531 | 66 | 37 | 0.0 | 0.0 | 0.00 | 0.00 | 0.00 | 80 | 1009.4 |
| 20260905133034 | 66 | 37 | 0.0 | 0.0 | 0.00 | 0.00 | 0.00 | 81 | 1009.4 |
| 20260905132534 | 66 | 37 | 0.0 | 0.0 | 0.00 | 0.00 | 0.00 | 81 | 1009.3 |
| 20260905132031 | 66 | 37 | 0.0 | 0.0 | 0.00 | 0.00 | 0.00 | 81 | 1009.1 |
| 20260905131544 | 66 | 37 | 0.0 | 0.0 | 0.00 | 0.00 | 0.00 | 81 | 1009.1 |
| 20260905131024 | 66 | 37 | 0.0 | 0.0 | 0.00 | 0.00 | 0.00 | 81 | 1009.1 |
| 20260905130532 | 66 | 37 | 0.0 | 0.0 | 0.00 | 0.00 | 0.00 | 81 | 1009.0 |
| 20260905130028 | 66 | 37 | 0.0 | 0.0 | 0.00 | 0.00 | 0.00 | 82 | 1009.0 |
| 20260905125524 | 66 | 37 | 0.0 | 0.0 | 0.00 | 0.01 | 0.00 | 82 | 1008.9 |
| 20260905125034 | 66 | 37 | 0.0 | 0.0 | 0.00 | 0.01 | 0.00 | 82 | 1008.8 |
| 20260905124536 | 66 | 37 | 0.0 | 0.0 | 0.00 | 0.01 | 0.00 | 82 | 1008.7 |
| 20260905124032 | 66 | 37 | 0.0 | 0.0 | 0.00 | 0.01 | 0.00 | 82 | 1008.7 |
| 20260905123527 | 66 | 37 | 0.0 | 0.0 | 0.00 | 0.01 | 0.00 | 82 | 1008.7 |
| 20260905123022 | 66 | 37 | 0.0 | 0.0 | 0.00 | 0.01 | 0.00 | 82 | 1008.6 |
| 20260905122532 | 66 | 37 | 0.0 | 0.0 | 0.00 | 0.01 | 0.00 | 82 | 1008.6 |
| 20260905122033 | 66 | 37 | 0.0 | 0.0 | 0.00 | 0.01 | 0.00 | 82 | 1008.6 |
| 20260905121526 | 66 | 37 | 0.0 | 0.0 | 0.00 | 0.01 | 0.00 | 82 | 1008.5 |
| 20260905121027 | 66 | 37 | 0.0 | 0.0 | 0.00 | 0.01 | 0.00 | 82 | 1008.5 |
| 20260905120537 | 67 | 37 | 0.0 | 0.0 | 0.00 | 0.01 | 0.00 | 82 | 1008.6 |
| 20260905120029 | 67 | 37 | 0.0 | 0.0 | 0.00 | 0.01 | 0.00 | 82 | 1008.5 |
| 20260905115524 | 67 | 37 | 0.0 | 0.0 | 0.00 | 0.06 | 0.00 | 82 | 1008.4 |
| 20260905115036 | 67 | 37 | 0.0 | 1.0 | 0.00 | 0.06 | 0.00 | 82 | 1008.4 |
| 20260905114550 | 67 | 37 | 0.0 | 0.0 | 0.00 | 0.06 | 0.00 | 81 | 1008.4 |
| 20260905114025 | 66 | 34 | 0.0 | 0.0 | 0.00 | 0.06 | 0.00 | 81 | 1008.3 |
| 20260905113521 | 66 | 34 | 0.0 | 0.0 | 0.00 | 0.06 | 0.00 | 82 | 1008.3 |
| 20260905113033 | 66 | 34 | 0.0 | 0.0 | 0.00 | 0.06 | 0.00 | 82 | 1008.3 |
| 20260905112529 | 66 | 34 | 0.0 | 0.0 | 0.00 | 0.06 | 0.00 | 82 | 1008.2 |
| 20260905112024 | 66 | 34 | 0.0 | 0.0 | 0.00 | 0.06 | 0.00 | 82 | 1008.1 |
| 20260905111521 | 66 | 34 | 0.0 | 0.0 | 0.00 | 0.06 | 0.00 | 82 | 1008.2 |
| 20260905111032 | 67 | 34 | 0.0 | 0.0 | 0.00 | 0.06 | 0.00 | 82 | 1008.1 |
| 20260905110527 | 67 | 34 | 0.0 | 0.0 | 0.00 | 0.06 | 0.00 | 83 | 1008.0 |
| 20260905110023 | 67 | 34 | 0.0 | 0.0 | 0.00 | 0.06 | 0.00 | 83 | 1008.1 |
| 20260905105534 | 67 | 34 | 0.0 | 0.0 | 0.00 | 0.08 | 0.00 | 83 | 1008.1 |
| 20260905105032 | 67 | 34 | 0.0 | 0.0 | 0.00 | 0.08 | 0.00 | 83 | 1008.0 |
| 20260905104526 | 67 | 34 | 0.0 | 1.0 | 0.00 | 0.08 | 0.00 | 83 | 1007.9 |
| 20260905104020 | 67 | 34 | 0.0 | 1.0 | 0.00 | 0.08 | 0.00 | 83 | 1007.9 |
| 20260905103533 | 67 | 36 | 0.0 | 1.0 | 0.00 | 0.08 | 0.00 | 83 | 1007.8 |
| 20260905103033 | 67 | 37 | 0.0 | 0.0 | 0.00 | 0.08 | 0.00 | 83 | 1007.7 |
| 20260905102524 | 67 | 37 | 0.0 | 0.0 | 0.00 | 0.08 | 0.00 | 83 | 1007.7 |
| 20260905102036 | 67 | 37 | 0.0 | 0.0 | 0.00 | 0.08 | 0.00 | 83 | 1007.7 |
| 20260905101533 | 67 | 37 | 0.0 | 0.0 | 0.00 | 0.08 | 0.00 | 83 | 1007.7 |
| 20260905101027 | 67 | 37 | 0.0 | 0.0 | 0.00 | 0.08 | 0.00 | 83 | 1007.6 |
| 20260905100537 | 67 | 37 | 0.0 | 0.0 | 0.00 | 0.08 | 0.00 | 83 | 1007.6 |
| 20260905100030 | 67 | 37 | 0.0 | 0.0 | 0.00 | 0.08 | 0.00 | 83 | 1007.6 |
| 20260905095525 | 67 | 37 | 0.0 | 0.0 | 0.00 | 0.10 | 0.00 | 83 | 1007.6 |
| 20260905095022 | 67 | 37 | 0.0 | 0.0 | 0.00 | 0.10 | 0.00 | 83 | 1007.5 |
| 20260905094532 | 68 | 37 | 0.0 | 0.0 | 0.00 | 0.10 | 0.00 | 83 | 1007.4 |
| 20260905094028 | 68 | 37 | 0.0 | 1.0 | 0.00 | 0.10 | 0.00 | 83 | 1007.3 |
| 20260905093523 | 68 | 37 | 0.0 | 1.0 | 0.00 | 0.10 | 0.00 | 83 | 1007.3 |
| 20260905093034 | 68 | 37 | 0.0 | 0.0 | 0.00 | 0.10 | 0.00 | 83 | 1007.3 |
| 20260905092533 | 67 | 37 | 0.0 | 0.0 | 0.00 | 0.10 | 0.00 | 83 | 1007.3 |
| 20260905092027 | 68 | 37 | 0.0 | 0.0 | 0.00 | 0.10 | 0.00 | 83 | 1007.3 |
| 20260905091523 | 68 | 37 | 0.0 | 0.0 | 0.00 | 0.10 | 0.00 | 83 | 1007.2 |
| 20260905091032 | 68 | 37 | 0.0 | 0.0 | 0.00 | 0.10 | 0.00 | 83 | 1007.2 |
| 20260905090529 | 68 | 37 | 0.0 | 0.0 | 0.00 | 0.10 | 0.00 | 82 | 1007.3 |
| 20260905090024 | 68 | 37 | 0.0 | 0.0 | 0.00 | 0.10 | 0.00 | 82 | 1007.2 |
| 20260905085536 | 68 | 37 | 0.0 | 0.0 | 0.00 | 0.10 | 0.00 | 82 | 1007.2 |
| 20260905085033 | 68 | 37 | 0.0 | 0.0 | 0.00 | 0.10 | 0.00 | 82 | 1007.1 |
| 20260905084529 | 68 | 37 | 0.0 | 0.0 | 0.00 | 0.10 | 0.00 | 82 | 1007.1 |
| 20260905084038 | 68 | 37 | 0.0 | 0.0 | 0.00 | 0.10 | 0.00 | 82 | 1007.1 |
| 20260905083553 | 68 | 37 | 0.0 | 0.0 | 0.00 | 0.10 | 0.00 | 81 | 1007.1 |
| 20260905083029 | 69 | 37 | 0.0 | 0.0 | 0.00 | 0.10 | 0.00 | 81 | 1007.1 |
| 20260905082526 | 69 | 37 | 0.0 | 0.0 | 0.00 | 0.10 | 0.00 | 81 | 1007.1 |
| 20260905082122 | 69 | 37 | 0.0 | 0.0 | 0.00 | 0.10 | 0.00 | 81 | 1007.1 |
| 20260905081624 | 69 | 37 | 0.0 | 0.0 | 0.00 | 0.10 | 0.00 | 81 | 1007.0 |
| 20260905081133 | 69 | 37 | 0.0 | 0.0 | 0.00 | 0.10 | 0.00 | 80 | 1007.0 |
| 20260905080629 | 69 | 37 | 0.0 | 0.0 | 0.00 | 0.10 | 0.00 | 80 | 1007.0 |
| 20260905080125 | 69 | 37 | 0.0 | 0.0 | 0.00 | 0.10 | 0.00 | 80 | 1007.1 |
| 20260905075636 | 70 | 37 | 0.0 | 0.0 | 0.00 | 0.10 | 0.00 | 80 | 1007.1 |
| 20260905075132 | 70 | 37 | 0.0 | 0.0 | 0.00 | 0.10 | 0.00 | 79 | 1007.1 |
| 20260905074631 | 70 | 37 | 0.0 | 0.0 | 0.00 | 0.10 | 0.00 | 79 | 1007.2 |
| 20260905074125 | 70 | 37 | 0.0 | 0.0 | 0.00 | 0.10 | 0.00 | 79 | 1007.2 |
| 20260905073633 | 70 | 37 | 0.0 | 0.0 | 0.00 | 0.10 | 0.00 | 79 | 1007.3 |
| 20260905073129 | 70 | 37 | 0.0 | 0.0 | 0.00 | 0.10 | 0.00 | 79 | 1007.2 |
| 20260905072624 | 70 | 37 | 0.0 | 0.0 | 0.00 | 0.10 | 0.00 | 78 | 1007.3 |
| 20260905072146 | 70 | 37 | 0.0 | 0.0 | 0.00 | 0.10 | 0.00 | 78 | 1007.3 |
| 20260905071634 | 71 | 37 | 0.0 | 0.0 | 0.00 | 0.10 | 0.00 | 77 | 1007.3 |
| 20260905071128 | 71 | 37 | 0.0 | 0.0 | 0.00 | 0.10 | 0.00 | 77 | 1007.2 |
| 20260905070624 | 71 | 37 | 0.0 | 0.0 | 0.00 | 0.10 | 0.00 | 76 | 1007.2 |
| 20260905070135 | 71 | 37 | 0.0 | 0.0 | 0.00 | 0.10 | 0.00 | 76 | 1007.2 |
| 20260905065629 | 71 | 37 | 0.0 | 0.0 | 0.00 | 0.10 | 0.00 | 76 | 1007.3 |
| 20260905065125 | 71 | 37 | 0.0 | 0.0 | 0.00 | 0.10 | 0.00 | 76 | 1007.2 |
| 20260905064635 | 71 | 37 | 0.0 | 0.0 | 0.00 | 0.10 | 0.00 | 76 | 1007.1 |
| 20260905064133 | 72 | 37 | 0.0 | 0.0 | 0.00 | 0.10 | 0.00 | 75 | 1007.1 |
| 20260905063627 | 72 | 36 | 0.0 | 0.0 | 0.00 | 0.10 | 0.00 | 75 | 1007.1 |
| 20260905063137 | 72 | 36 | 0.0 | 0.0 | 0.00 | 0.10 | 0.00 | 74 | 1007.0 |
| 20260905062625 | 72 | 36 | 0.0 | 0.0 | 0.00 | 0.10 | 0.00 | 74 | 1007.0 |
| 20260905062135 | 73 | 36 | 0.0 | 0.0 | 0.00 | 0.10 | 0.00 | 73 | 1007.0 |
| 20260905061630 | 73 | 36 | 0.0 | 0.0 | 0.00 | 0.10 | 0.00 | 73 | 1007.0 |
| 20260905061126 | 73 | 36 | 0.0 | 0.0 | 0.00 | 0.10 | 0.00 | 73 | 1007.0 |
| 20260905060625 | 73 | 36 | 0.0 | 0.0 | 0.00 | 0.10 | 0.00 | 73 | 1007.1 |
| 20260905060132 | 73 | 36 | 0.0 | 0.0 | 0.00 | 0.10 | 0.00 | 72 | 1007.1 |
| 20260905055629 | 73 | 36 | 0.0 | 0.0 | 0.00 | 0.10 | 0.10 | 73 | 1007.1 |
| 20260905055125 | 73 | 36 | 0.0 | 0.0 | 0.00 | 0.10 | 0.10 | 73 | 1007.0 |
| 20260905054637 | 73 | 36 | 0.0 | 0.0 | 0.00 | 0.10 | 0.10 | 73 | 1007.1 |
| 20260905054132 | 73 | 36 | 0.0 | 0.0 | 0.00 | 0.10 | 0.10 | 72 | 1007.0 |
| 20260905053626 | 74 | 36 | 0.0 | 0.0 | 0.00 | 0.10 | 0.10 | 72 | 1007.0 |
| 20260905053123 | 74 | 36 | 0.0 | 0.0 | 0.00 | 0.10 | 0.10 | 72 | 1007.0 |
| 20260905052635 | 74 | 36 | 0.0 | 0.0 | 0.00 | 0.10 | 0.10 | 72 | 1007.0 |
| 20260905052129 | 74 | 36 | 0.0 | 0.0 | 0.00 | 0.10 | 0.10 | 71 | 1007.0 |
| 20260905051625 | 74 | 36 | 0.0 | 0.0 | 0.00 | 0.10 | 0.10 | 72 | 1006.9 |
| 20260905051123 | 74 | 36 | 0.0 | 1.0 | 0.00 | 0.10 | 0.10 | 71 | 1006.9 |
| 20260905050130 | 74 | 36 | 0.0 | 0.0 | 0.00 | 0.10 | 0.10 | 72 | 1006.9 |
| 20260905045625 | 74 | 36 | 0.0 | 0.0 | 0.00 | 0.10 | 0.10 | 73 | 1006.9 |
| 20260905045134 | 74 | 36 | 0.0 | 0.0 | 0.00 | 0.10 | 0.10 | 72 | 1007.0 |
| 20260905044632 | 74 | 36 | 0.0 | 0.0 | 0.00 | 0.10 | 0.10 | 72 | 1007.0 |
| 20260905044127 | 74 | 36 | 0.0 | 0.0 | 0.00 | 0.10 | 0.10 | 72 | 1007.0 |
| 20260905043636 | 74 | 36 | 0.0 | 1.0 | 0.00 | 0.10 | 0.10 | 72 | 1007.1 |
| 20260905043130 | 74 | 36 | 0.0 | 1.0 | 0.00 | 0.10 | 0.10 | 72 | 1007.1 |
| 20260905042627 | 74 | 36 | 0.0 | 0.0 | 0.00 | 0.10 | 0.10 | 73 | 1007.1 |
| 20260905042124 | 74 | 36 | 0.0 | 0.0 | 0.00 | 0.10 | 0.10 | 73 | 1007.1 |